Time,TemperatureF,DewpointF,PressureIn,WindDirection,WindDirectionDegrees,WindSpeedMPH,WindSpeedGustMPH,Humidity,HourlyPrecipIn,Conditions,Clouds,dailyrainin,SoftwareType,DateUTC
2013-11-12 00:10:00,40.6,30.0,29.88,WSW,241,16.0,21.0,65,0.00,,,0.00,weatherlink.com 1.10,2013-11-12 05:10:00,
2013-11-12 00:25:00,40.4,29.0,29.87,SW,224,9.0,22.0,65,0.00,,,0.00,weatherlink.com 1.10,2013-11-12 05:25:00,
2013-11-12 00:40:00,40.0,29.0,29.87,WSW,242,8.0,24.0,66,0.00,,,0.00,weatherlink.com 1.10,2013-11-12 05:40:00,
2013-11-12 00:55:00,40.0,30.0,29.87,WSW,246,14.0,24.0,68,0.00,,,0.00,weatherlink.com 1.10,2013-11-12 05:55:00,
2013-11-12 01:10:00,40.1,31.0,29.87,WSW,254,10.0,24.0,69,0.00,,,0.00,weatherlink.com 1.10,2013-11-12 06:10:00,
2013-11-12 01:25:00,40.1,31.0,29.87,SW,233,9.0,29.0,71,0.00,,,0.00,weatherlink.com 1.10,2013-11-12 06:25:00,
2013-11-12 01:40:00,40.1,32.0,29.87,NNW,327,9.0,27.0,73,0.00,,,0.00,weatherlink.com 1.10,2013-11-12 06:40:00,
2013-11-12 01:55:00,40.0,32.0,29.87,WSW,244,5.0,22.0,74,0.00,,,0.00,weatherlink.com 1.10,2013-11-12 06:55:00,
2013-11-12 02:10:00,40.0,33.0,29.87,SW,223,7.0,28.0,76,0.00,,,0.00,weatherlink.com 1.10,2013-11-12 07:10:00,
2013-11-12 02:25:00,39.9,33.0,29.87,SW,230,14.0,19.0,76,0.00,,,0.00,weatherlink.com 1.10,2013-11-12 07:25:00,
2013-11-12 02:40:00,39.7,33.0,29.87,SSW,205,9.0,25.0,78,0.00,,,0.00,weatherlink.com 1.10,2013-11-12 07:40:00,
2013-11-12 02:55:00,34.9,30.0,29.89,West,271,11.0,31.0,82,0.00,,,0.00,weatherlink.com 1.10,2013-11-12 07:55:00,
2013-11-12 03:10:00,30.8,29.0,29.91,West,269,10.0,18.0,92,0.00,,,0.00,weatherlink.com 1.10,2013-11-12 08:10:00,
2013-11-12 03:25:00,30.3,28.0,29.91,NW,323,16.0,18.0,91,0.00,,,0.00,weatherlink.com 1.10,2013-11-12 08:25:00,
2013-11-12 03:40:00,30.0,27.0,29.91,NNW,329,9.0,17.0,89,0.00,,,0.00,weatherlink.com 1.10,2013-11-12 08:40:00,
2013-11-12 03:55:00,29.5,26.0,29.92,WNW,286,12.0,17.0,86,0.00,,,0.00,weatherlink.com 1.10,2013-11-12 08:55:00,
2013-11-12 04:10:00,29.0,25.0,29.93,WNW,293,17.0,18.0,86,0.00,,,0.00,weatherlink.com 1.10,2013-11-12 09:10:00,
2013-11-12 04:26:00,28.7,25.0,29.93,WNW,285,10.0,18.0,85,0.00,,,0.00,weatherlink.com 1.10,2013-11-12 09:26:00,
2013-11-12 04:41:00,28.4,24.0,29.94,NW,311,6.0,17.0,84,0.00,,,0.00,weatherlink.com 1.10,2013-11-12 09:41:00,
2013-11-12 04:56:00,28.3,24.0,29.95,WNW,294,11.0,17.0,84,0.00,,,0.00,weatherlink.com 1.10,2013-11-12 09:56:00,
2013-11-12 05:11:00,28.1,24.0,29.96,WNW,289,0.0,15.0,84,0.00,,,0.00,weatherlink.com 1.10,2013-11-12 10:11:00,
2013-11-12 05:26:00,28.1,24.0,29.97,West,275,0.0,11.0,84,0.00,,,0.00,weatherlink.com 1.10,2013-11-12 10:26:00,
2013-11-12 05:41:00,27.9,23.0,29.97,West,273,16.0,17.0,81,0.00,,,0.00,weatherlink.com 1.10,2013-11-12 10:41:00,
2013-11-12 05:56:00,27.6,22.0,29.98,WNW,302,14.0,17.0,80,0.00,,,0.00,weatherlink.com 1.10,2013-11-12 10:56:00,
2013-11-12 06:11:00,27.2,21.0,29.99,NW,325,12.0,17.0,77,0.00,,,0.00,weatherlink.com 1.10,2013-11-12 11:11:00,
2013-11-12 06:26:00,27.0,21.0,29.99,NW,324,15.0,17.0,77,0.00,,,0.00,weatherlink.com 1.10,2013-11-12 11:26:00,
2013-11-12 06:41:00,26.6,19.0,30.00,West,279,8.0,18.0,73,0.00,,,0.00,weatherlink.com 1.10,2013-11-12 11:41:00,
2013-11-12 06:56:00,26.3,19.0,30.01,WNW,287,17.0,18.0,73,0.00,,,0.00,weatherlink.com 1.10,2013-11-12 11:56:00,
2013-11-12 07:11:00,26.0,18.0,30.02,NW,311,16.0,17.0,72,0.00,,,0.00,weatherlink.com 1.10,2013-11-12 12:11:00,
2013-11-12 07:26:00,25.5,18.0,30.02,West,279,16.0,18.0,73,0.00,,,0.00,weatherlink.com 1.10,2013-11-12 12:26:00,
2013-11-12 07:41:00,25.1,18.0,30.03,WNW,284,0.0,18.0,73,0.00,,,0.00,weatherlink.com 1.10,2013-11-12 12:41:00,
2013-11-12 07:56:00,24.6,17.0,30.03,West,261,14.0,18.0,73,0.00,,,0.00,weatherlink.com 1.10,2013-11-12 12:56:00,
2013-11-12 08:11:00,24.5,17.0,30.04,WNW,299,11.0,17.0,74,0.00,,,0.00,weatherlink.com 1.10,2013-11-12 13:11:00,
2013-11-12 08:26:00,24.4,18.0,30.05,WNW,295,9.0,17.0,75,0.00,,,0.00,weatherlink.com 1.10,2013-11-12 13:26:00,
2013-11-12 08:41:00,24.3,18.0,30.05,WNW,296,16.0,17.0,76,0.00,,,0.00,weatherlink.com 1.10,2013-11-12 13:41:00,
2013-11-12 08:56:00,24.2,18.0,30.05,WNW,295,17.0,17.0,77,0.00,,,0.00,weatherlink.com 1.10,2013-11-12 13:56:00,
2013-11-12 09:11:00,24.2,18.0,30.06,WNW,300,14.0,18.0,77,0.00,,,0.00,weatherlink.com 1.10,2013-11-12 14:11:00,
2013-11-12 09:26:00,24.2,18.0,30.07,NW,322,2.0,18.0,77,0.00,,,0.00,weatherlink.com 1.10,2013-11-12 14:26:00,
2013-11-12 09:42:00,24.1,18.0,30.07,NW,310,9.0,17.0,77,0.00,,,0.00,weatherlink.com 1.10,2013-11-12 14:42:00,
2013-11-12 09:57:00,23.8,17.0,30.08,WNW,302,5.0,17.0,76,0.00,,,0.00,weatherlink.com 1.10,2013-11-12 14:57:00,
2013-11-12 10:12:00,23.7,17.0,30.08,WNW,284,12.0,17.0,75,0.00,,,0.00,weatherlink.com 1.10,2013-11-12 15:12:00,
2013-11-12 10:27:00,23.2,16.0,30.07,WNW,302,15.0,18.0,75,0.00,,,0.00,weatherlink.com 1.10,2013-11-12 15:27:00,
2013-11-12 10:42:00,23.3,16.0,30.08,West,263,15.0,18.0,74,0.00,,,0.00,weatherlink.com 1.10,2013-11-12 15:42:00,
2013-11-12 10:57:00,23.4,15.0,30.08,WNW,282,8.0,18.0,71,0.00,,,0.00,weatherlink.com 1.10,2013-11-12 15:57:00,
2013-11-12 11:12:00,22.9,14.0,30.08,West,265,8.0,18.0,69,0.00,,,0.00,weatherlink.com 1.10,2013-11-12 16:12:00,
2013-11-12 11:27:00,23.3,15.0,30.08,NW,313,16.0,17.0,71,0.00,,,0.00,weatherlink.com 1.10,2013-11-12 16:27:00,
2013-11-12 11:42:00,23.1,15.0,30.07,NW,304,17.0,17.0,71,0.00,,,0.00,weatherlink.com 1.10,2013-11-12 16:42:00,
2013-11-12 11:57:00,23.2,15.0,30.08,WNW,296,17.0,18.0,70,0.00,,,0.00,weatherlink.com 1.10,2013-11-12 16:57:00,
2013-11-12 12:12:00,23.4,15.0,30.07,NNW,336,1.0,17.0,71,0.00,,,0.00,weatherlink.com 1.10,2013-11-12 17:12:00,
2013-11-12 12:27:00,23.3,15.0,30.08,WNW,292,0.0,16.0,71,0.00,,,0.00,weatherlink.com 1.10,2013-11-12 17:27:00,
2013-11-12 12:42:00,23.4,15.0,30.08,WNW,288,0.0,17.0,69,0.00,,,0.00,weatherlink.com 1.10,2013-11-12 17:42:00,
2013-11-12 12:57:00,23.9,15.0,30.08,WNW,300,11.0,12.0,70,0.00,,,0.00,weatherlink.com 1.10,2013-11-12 17:57:00,
2013-11-12 13:12:00,24.8,16.0,30.09,NW,307,0.0,14.0,69,0.00,,,0.00,weatherlink.com 1.10,2013-11-12 18:12:00,
2013-11-12 13:27:00,25.0,16.0,30.08,WNW,284,14.0,17.0,68,0.00,,,0.00,weatherlink.com 1.10,2013-11-12 18:27:00,
2013-11-12 13:42:00,24.8,15.0,30.08,WNW,289,15.0,18.0,67,0.00,,,0.00,weatherlink.com 1.10,2013-11-12 18:42:00,
2013-11-12 13:57:00,25.0,15.0,30.09,NW,317,16.0,17.0,67,0.00,,,0.00,weatherlink.com 1.10,2013-11-12 18:57:00,
2013-11-12 14:12:00,25.2,16.0,30.09,NNW,329,15.0,18.0,68,0.00,,,0.00,weatherlink.com 1.10,2013-11-12 19:12:00,
2013-11-12 14:27:00,25.6,16.0,30.09,WNW,288,12.0,18.0,67,0.00,,,0.00,weatherlink.com 1.10,2013-11-12 19:27:00,
2013-11-12 14:42:00,25.2,15.0,30.10,WNW,301,16.0,18.0,65,0.00,,,0.00,weatherlink.com 1.10,2013-11-12 19:42:00,
2013-11-12 14:57:00,25.2,15.0,30.10,NW,319,16.0,18.0,65,0.00,,,0.00,weatherlink.com 1.10,2013-11-12 19:57:00,
2013-11-12 15:12:00,26.0,15.0,30.10,WNW,298,14.0,17.0,64,0.00,,,0.00,weatherlink.com 1.10,2013-11-12 20:12:00,
2013-11-12 15:27:00,25.9,15.0,30.10,WNW,300,12.0,18.0,64,0.00,,,0.00,weatherlink.com 1.10,2013-11-12 20:27:00,
2013-11-12 15:42:00,25.3,15.0,30.11,West,277,14.0,18.0,66,0.00,,,0.00,weatherlink.com 1.10,2013-11-12 20:42:00,
2013-11-12 15:57:00,25.0,15.0,30.12,NW,308,17.0,18.0,67,0.00,,,0.00,weatherlink.com 1.10,2013-11-12 20:57:00,
2013-11-12 16:12:00,24.7,15.0,30.12,WSW,250,14.0,18.0,67,0.00,,,0.00,weatherlink.com 1.10,2013-11-12 21:12:00,
2013-11-12 16:42:00,24.2,14.0,30.13,West,278,13.0,18.0,66,0.00,,,0.00,weatherlink.com 1.10,2013-11-12 21:42:00,
2013-11-12 16:57:00,24.3,15.0,30.14,WNW,293,17.0,18.0,67,0.00,,,0.00,weatherlink.com 1.10,2013-11-12 21:57:00,
2013-11-12 17:12:00,24.3,14.0,30.15,WNW,302,16.0,18.0,66,0.00,,,0.00,weatherlink.com 1.10,2013-11-12 22:12:00,
2013-11-12 17:27:00,24.3,15.0,30.15,WNW,289,15.0,18.0,67,0.00,,,0.00,weatherlink.com 1.10,2013-11-12 22:27:00,
2013-11-12 17:42:00,24.2,15.0,30.15,WNW,298,12.0,18.0,69,0.00,,,0.00,weatherlink.com 1.10,2013-11-12 22:42:00,
2013-11-12 17:57:00,23.9,15.0,30.16,WNW,299,13.0,18.0,70,0.00,,,0.00,weatherlink.com 1.10,2013-11-12 22:57:00,
2013-11-12 18:12:00,23.8,16.0,30.15,West,262,16.0,18.0,71,0.00,,,0.00,weatherlink.com 1.10,2013-11-12 23:12:00,
2013-11-12 18:27:00,23.9,15.0,30.16,WNW,296,14.0,18.0,70,0.00,,,0.00,weatherlink.com 1.10,2013-11-12 23:27:00,
2013-11-12 18:42:00,23.9,15.0,30.15,NW,309,17.0,17.0,69,0.00,,,0.00,weatherlink.com 1.10,2013-11-12 23:42:00,
2013-11-12 18:57:00,24.0,15.0,30.16,West,281,13.0,17.0,69,0.00,,,0.00,weatherlink.com 1.10,2013-11-12 23:57:00,
2013-11-12 19:12:00,24.0,15.0,30.15,WNW,286,16.0,18.0,68,0.00,,,0.00,weatherlink.com 1.10,2013-11-13 00:12:00,
2013-11-12 19:27:00,23.9,15.0,30.15,WNW,290,17.0,20.0,68,0.00,,,0.00,weatherlink.com 1.10,2013-11-13 00:27:00,
2013-11-12 19:42:00,24.0,14.0,30.16,WNW,288,17.0,27.0,67,0.00,,,0.00,weatherlink.com 1.10,2013-11-13 00:42:00,
2013-11-12 19:57:00,23.8,14.0,30.16,WNW,286,9.0,18.0,67,0.00,,,0.00,weatherlink.com 1.10,2013-11-13 00:57:00,
2013-11-12 20:12:00,23.7,14.0,30.16,WNW,290,15.0,18.0,67,0.00,,,0.00,weatherlink.com 1.10,2013-11-13 01:12:00,
2013-11-12 20:28:00,23.6,14.0,30.16,WSW,250,16.0,17.0,67,0.00,,,0.00,weatherlink.com 1.10,2013-11-13 01:28:00,
2013-11-12 20:43:00,23.5,14.0,30.17,West,271,17.0,17.0,67,0.00,,,0.00,weatherlink.com 1.10,2013-11-13 01:43:00,
2013-11-12 20:58:00,23.2,14.0,30.18,WNW,302,16.0,18.0,67,0.00,,,0.00,weatherlink.com 1.10,2013-11-13 01:58:00,
2013-11-12 21:13:00,23.1,14.0,30.18,West,271,11.0,18.0,67,0.00,,,0.00,weatherlink.com 1.10,2013-11-13 02:13:00,
2013-11-12 21:28:00,22.9,14.0,30.18,WSW,252,11.0,17.0,68,0.00,,,0.00,weatherlink.com 1.10,2013-11-13 02:28:00,
2013-11-12 21:43:00,22.7,14.0,30.18,WNW,297,13.0,18.0,69,0.00,,,0.00,weatherlink.com 1.10,2013-11-13 02:43:00,
2013-11-12 21:58:00,22.5,14.0,30.17,WNW,295,7.0,18.0,70,0.00,,,0.00,weatherlink.com 1.10,2013-11-13 02:58:00,
2013-11-12 22:13:00,22.4,14.0,30.18,WNW,302,0.0,17.0,70,0.00,,,0.00,weatherlink.com 1.10,2013-11-13 03:13:00,
2013-11-12 22:28:00,22.1,14.0,30.17,WNW,294,10.0,17.0,71,0.00,,,0.00,weatherlink.com 1.10,2013-11-13 03:28:00,
2013-11-12 22:43:00,22.1,14.0,30.17,West,261,11.0,18.0,70,0.00,,,0.00,weatherlink.com 1.10,2013-11-13 03:43:00,
2013-11-12 22:58:00,22.0,14.0,30.17,NW,305,16.0,18.0,71,0.00,,,0.00,weatherlink.com 1.10,2013-11-13 03:58:00,
2013-11-12 23:13:00,22.0,14.0,30.17,NW,317,8.0,17.0,71,0.00,,,0.00,weatherlink.com 1.10,2013-11-13 04:13:00,
2013-11-12 23:28:00,21.9,14.0,30.17,NW,307,17.0,17.0,72,0.00,,,0.00,weatherlink.com 1.10,2013-11-13 04:28:00,
2013-11-12 23:43:00,21.8,14.0,30.16,NW,309,17.0,18.0,71,0.00,,,0.00,weatherlink.com 1.10,2013-11-13 04:43:00,
2013-11-12 23:58:00,21.8,13.0,30.18,WNW,296,11.0,18.0,70,0.00,,,0.00,weatherlink.com 1.10,2013-11-13 04:58:00,